Dumas, Arkansas, United States (71639)
Lat: 33.89N, Lon: 91.49W
Wx Zone: ARZ065
Local Info
Past Weather Observations for Saturday, January 24, 2015

NOTE: This archive is for the closest National Weather Service station to Dumas. Information may differ from the station used for current weather conditions.

Click here for Long-term Archive

Time Weather Temperature Dewpoint Humidity Pressure Winds Precip Visibility
23:53
Clear
45°F / 7°C 34°F / 1°C 66% 29.95 in
(1014 mb)
SSW 6.9 mph
(SSW 11 kph)
- 10SM
22:53
Clear
46°F / 8°C 34°F / 1°C 62% 29.98 in
(1015 mb)
SSW 8.1 mph
(SSW 13 kph)
- 10SM
21:53
Clear
46°F / 8°C 34°F / 1°C 62% 29.98 in
(1015 mb)
SW 9.2 mph
(SW 15 kph)
- 10SM
20:53
Clear
48°F / 9°C 32°F / 0°C 54% 29.98 in
(1015 mb)
SW 6.9 mph
(SW 11 kph)
- 10SM
19:53
Clear
52°F / 11°C 30°F / -1°C 44% 29.98 in
(1015 mb)
SW 6.9 mph
(SW 11 kph)
- 10SM
18:53
Clear
52°F / 11°C 32°F / 0°C 47% 29.98 in
(1015 mb)
SW 5.8 mph
(SW 9 kph)
- 10SM
17:53
Clear
54°F / 12°C 30°F / -1°C 41% 29.98 in
(1015 mb)
SW 4.6 mph
(SW 7 kph)
- 10SM
16:53
Clear
57°F / 14°C 30°F / -1°C 36% 29.98 in
(1015 mb)
SSW 6.9 mph
(SSW 11 kph)
- 10SM
15:53
Clear
57°F / 14°C 28°F / -2°C 33% 29.98 in
(1015 mb)
W 10.4 mph
(W 17 kph)
- 10SM
14:53
Clear
57°F / 14°C 30°F / -1°C 36% 29.98 in
(1015 mb)
SSW 10.4 mph
(SSW 17 kph)
- 10SM
13:53
Clear
57°F / 14°C 32°F / 0°C 39% 30.01 in
(1016 mb)
SW 10.4 mph
(SW 17 kph)
- 10SM
12:53
Clear
54°F / 12°C 34°F / 1°C 47% 30.04 in
(1017 mb)
Variable 6.9 mph
(Variable 11 kph)
- 10SM
11:53
Clear
50°F / 10°C 36°F / 2°C 58% 30.06 in
(1018 mb)
Variable 5.8 mph
(Variable 9 kph)
- 10SM
10:53
Clear
45°F / 7°C 36°F / 2°C 71% 30.09 in
(1019 mb)
SSW 6.9 mph
(SSW 11 kph)
- 10SM
09:53
Clear
41°F / 5°C 34°F / 1°C 76% 30.09 in
(1019 mb)
Variable 4.6 mph
(Variable 7 kph)
- 10SM
08:53
Clear
37°F / 3°C 30°F / -1°C 75% 30.09 in
(1019 mb)
SSW 6.9 mph
(SSW 11 kph)
- 10SM
07:53
Clear
34°F / 1°C 28°F / -2°C 81% 30.09 in
(1019 mb)
SSW 4.6 mph
(SSW 7 kph)
- 10SM
06:53
Clear
32°F / 0°C 28°F / -2°C 87% 30.09 in
(1019 mb)
SSW 4.6 mph
(SSW 7 kph)
- 10SM
05:53
Clear
30°F / -1°C 28°F / -2°C 93% 30.09 in
(1019 mb)
SSW 4.6 mph
(SSW 7 kph)
- 8SM
04:53
Clear
30°F / -1°C 28°F / -2°C 93% 30.06 in
(1018 mb)
W 5.8 mph
(W 9 kph)
- 9SM
03:53
Clear
30°F / -1°C 28°F / -2°C 93% 30.09 in
(1019 mb)
W 3.5 mph
(W 6 kph)
- 8SM
02:53
Clear
32°F / 0°C 30°F / -1°C 93% 30.09 in
(1019 mb)
W 4.6 mph
(W 7 kph)
- 7SM
01:53
Clear
Fog And Mist
32°F / 0°C 30°F / -1°C 93% 30.06 in
(1018 mb)
W 4.6 mph
(W 7 kph)
- 6SM
00:53
Clear
Fog And Mist
34°F / 1°C 30°F / -1°C 87% 30.06 in
(1018 mb)
SSW 6.9 mph
(SSW 11 kph)
- 5SM
Time Weather Temperature Dewpoint Humidity Pressure Winds Precip Visibility


Weather for websites

WeatherForYou.com, LLC is not responsible for any damages or problems caused by this service. Current weather conditions are obtained from the closest station including government and personal stations which may have varying degrees of accuracy. Weather forecasts are derived from the NOAA NDFD. Like all things, this site belongs to Jesus Christ... He just trusts me to maintain it. If you have any questions or comments email webmaster@weatherforyou.com

Copyright © 2015, WeatherForYou.com LLC. All rights reserved.